Location: Tel Aviv
(32.0670°N, 34.7670°E)
Time: 19:07:00
(UTC+02:00)

Hubble Space Telescope - Visible Passes

Search period start: 30 November 2023 00:00
Search period end: 10 December 2023 00:00
Orbit: 519 x 523 km, 28.5° (Epoch: 30 November)

Date Brightness Start Highest point End Pass type
(mag) Time Alt. Az. Time Alt. Az. Time Alt. Az.
30 Nov 1.4 17:19:40 10° WSW 17:23:34 50° S 17:27:28 10° ESE visible
30 Nov 3.0 19:00:33 10° WSW 19:02:28 22° SW 19:02:28 22° SW visible
01 Dec 1.5 17:03:19 10° W 17:07:12 48° S 17:11:05 10° ESE visible
01 Dec 2.5 18:44:17 10° WSW 18:47:16 26° SSW 18:47:16 26° SSW visible
02 Dec 2.5 18:28:01 10° WSW 18:31:16 24° SSW 18:32:11 22° S visible
03 Dec 2.9 18:11:46 10° WSW 18:14:49 21° SSW 18:17:12 13° SSE visible
04 Dec 3.2 17:55:34 10° WSW 17:58:21 18° SSW 18:01:08 10° SSE visible
05 Dec 3.4 17:39:25 10° WSW 17:41:52 16° SSW 17:44:19 10° SSE visible
06 Dec 3.6 17:23:23 10° SW 17:25:21 13° SSW 17:27:20 10° S visible
07 Dec 3.8 17:07:36 10° SW 17:08:49 11° SSW 17:10:03 10° S visible
